Regional Weather Roundup
Issued by NWS Grand Forks, ND

Home | Current Version | Previous Version | Graphics & Text | Print | Product List | Glossary On
Versions: 1 2 3 4 5 6 7 8 9 10 11 12 13 14 15 16 17 18 19 20 21 22 23 24 25 26 27 28 29 30 31 32 33 34 35 36 37 38 39 40 41 42 43 44 45 46 47 48 49 50
000
ASUS43 KFGF 221910
RWRFGF
PRAIRIE TO PINES  WEATHER ROUNDUP
NATIONAL WEATHER SERVICE EASTERN NORTH DAKOTA/GRAND FORKS ND
200 PM CDT MON MAY 22 2017

 **SATELLITE DATA USED TO AUGMENT SKY COVER AT AUTOMATED STATIONS**
 *****  WEATHER ACROSS EASTERN NORTH DAKOTA  *****

CITY           SKY/WX    TMP DP  RH WIND       PRES   REMARKS
GRAND FORKS    CLOUDY    53  44  71 N17       29.86R
GRAND FRKS AFB DRIZZLE   50  43  76 N8        29.87S
DEVILS LAKE    CLOUDY    52  40  63 N20       29.92R
FARGO          CLOUDY    56  42  59 NW23G29   29.85S
WAHPETON ARPT  CLOUDY    59  41  51 NW17      29.86S
$$

 ***** WEATHER ACROSS CENTRAL AND WESTERN NORTH DAKOTA  *****

CITY           SKY/WX    TMP DP  RH WIND       PRES   REMARKS
BISMARCK       CLOUDY    61  36  39 N23G30    29.98R
MINOT          PTSUNNY   61  38  42 NW18      29.99S
JAMESTOWN      CLOUDY    56  41  57 N16       29.89S
MINOT AFB      PTSUNNY   61  38  43 NW17G24   29.98F
GARRISON         N/A     58  37  45 N14G22    30.00R
WILLISTON      CLOUDY    62  41  46 NW10      30.06R
DICKINSON      FAIR      59  34  39 N20G25    30.01R
HETTINGER      PTSUNNY   62  35  36 N16G30    30.01S
$$

 *****  OTHER AIRPORT OBSERVATIONS IN OUR AREA  *****

CITY           SKY/WX    TMP DP  RH WIND       PRES   REMARKS
WALHALLA       NOT AVBL
GRAFTON AIRPOR MOCLDY    48  46  93 N23       29.89R FOG
VALLEY CITY AR NOT AVBL
CANDO          NOT AVBL
CAVALIER APRT  LGT RAIN  48  45  87 N10G21    29.88S
GWINNER        MOCLDY    59  41  51 MISG      29.87S
SHEYENNE NWR     N/A     59  40  50 N12       29.95S
ROLLA          MOCLDY    57  34  41 NW24G33   29.92F
 ***** THE ABOVE OBSERVATIONS ARE NON NWS ARE NOT QUALITY
       CONTROLLED AND MAY MIS-REPORT RAIN FOR SNOW...
$$

  *****  WEATHER ACROSS NORTHERN MINNESOTA  *****

CITY           SKY/WX    TMP DP  RH WIND       PRES   REMARKS
FLAG ISLAND    LGT RAIN  46  43  87 N10G16    29.78R
WARROAD        DRIZZLE   46  43  87 NW7       29.81R
ROSEAU         LGT RAIN  46  43  87 N13       29.82R
HALLOCK        DRIZZLE   52  46  82 NW14      29.85R
THF RVR FALLS  LGT RAIN  48  43  82 NW12      29.84R
BAUDETTE       LGT RAIN  48  44  86 NW9       29.78R
WASKISH        CLOUDY    48  45  87 W8        29.79R
CROOKSTON      CLOUDY    50  45  81 N17G24    29.85S
STEPHEN NDAWN    N/A     52  45  76 N15         N/A
GREENBUSH NDAW   N/A     46  45  93 N12         N/A
$$
  *****  WEATHER ACROSS CENTRAL AND WEST MINNESOTA  *****

CITY           SKY/WX    TMP DP  RH WIND       PRES   REMARKS
FOSSTON        LGT RAIN  48  43  81 NW9       29.82S
BEMIDJI        CLOUDY    49  42  79 NW15      29.80R
PARK RAPIDS    LGT RAIN  54  42  64 W9        29.80S
ELBOW LAKE     MOCLDY    57  43  59 NW15      29.85F
WADENA         CLOUDY    54  43  66 W6        29.82S
DETROIT LAKES  PTSUNNY   52  43  71 NW14      29.84S
MOORHEAD       PTSUNNY   55  43  62 N15G21    29.86R
FERGUS FALLS   PTSUNNY   55  43  62 NW17      29.83F
MORRIS MN      FAIR      61  45  55 NW16G23   29.85F
STAPLES        CLOUDY    55  41  58 W15       29.82R
$$
  *****  WEATHER ELSEWHERE ACROSS MINNESOTA  *****

CITY           SKY/WX    TMP DP  RH WIND       PRES   REMARKS
DULUTH         CLOUDY    52  45  77 W10       29.77S
INTRNTL FALLS  LGT RAIN  47  43  86 NW8       29.76R FOG
ELY            CLOUDY    50  43  76 W7        29.73S
CLOQUET        CLOUDY    52  43  71 SW8       29.79R
WHEATON        PTSUNNY   59  43  55 NW9       29.87F
BRAINERD       CLOUDY    53  42  66 NW7       29.81S
HIBBING        CLOUDY    50  45  83 SW10      29.76S
ALEXANDRIA     PTSUNNY   58  42  55 W14G25    29.85F
SAINT CLOUD    PTSUNNY   58  44  60 NW12      29.83F
MINNEAPOLIS    FAIR      64  42  44 W13G20    29.83F
$$

  *****  WEATHER ACROSS SOUTH DAKOTA  *****

CITY           SKY/WX    TMP DP  RH WIND       PRES   REMARKS
SIOUX FALLS    PTSUNNY   61  50  67 NW13      29.86S
BROOKINGS      PTSUNNY   57  49  74 NW8       29.85F
WATERTOWN      PTSUNNY   58  41  53 NW14      29.86F
HURON          LGT RAIN  51  50  96 NW15      29.89S
SISSETON         N/A     62  44  51 N14       29.85F
ABERDEEN       CLOUDY    59  36  42 CALM      29.91S
MITCHELL       PTSUNNY   59  49  69 NW14      29.89F
PIERRE         PTSUNNY   56  44  64 N23G30    29.93R
MOBRIDGE       FAIR      62  44  51 N12G20    29.93F
RAPID CITY     CLOUDY    53  43  68 W16       30.03F
$$

  *****  SOME WEATHER IN NEARBY STATES *****

CITY           SKY/WX    TMP DP  RH WIND       PRES   REMARKS
GLASGOW MT     PTSUNNY   67  38  34 N15       30.12S
GREAT FALLS MT CLOUDY    65  36  34 VRB5      30.22F
CHEYENNE WY    LGT RAIN  52  35  52 N16G33    30.12F
SCOTTSBLUFF NE LGT RAIN  56  42  59 N20G31    30.08R
OMAHA NE       PTSUNNY   74  45  35 SW12G22   29.90F
DES MOINES IA  CLOUDY    72  53  51 SW16      29.89F
DAVENPORT IA   FAIR      67  52  58 SW18G33   29.92F
CHICAGO IL     FAIR      71  46  40 SW15G24   29.95F
EAU CLAIRE WI  FAIR      64  42  44 W13G21    29.81F
LA CROSSE WI   FAIR      70  49  47 S13       29.83F
$$

  *****  SOME NATIONAL WEATHER *****

CITY           SKY/WX    TMP DP  RH WIND       PRES   REMARKS
LA GUARDIA NY  RAIN      61  58  90 S9        30.02F FOG
RALEIGH NC     PTSUNNY   77  67  71 VRB7      30.00F
ATLANTA GA     TSTM      71  70  96 CALM      30.03S FOG
NEW ORLEANS LA CLOUDY    76  69  79 N3        30.01S
OKLAHOMA CITY  CLOUDY    66  55  67 W8        30.04R
ALBUQUERQUE NM FAIR      73  24  16 NW12G26   30.10F
SALT LAKE CITY FAIR      72  45  37 NW15      30.23F
LOS ANGELES CA FAIR      67  58  72 W12       29.98S
BOISE ID       FAIR      75  47  36 W7        30.19F
SEATTLE WA     PTSUNNY   73  53  49 N10       30.15F
$$

*** WEATHER ACROSS MANITOBA...SASKATCHEWAN AND ONTARIO ***
                ***ONTARIO***

CITY           SKY/WX    TMP DP  RH WIND       PRES   REMARKS
GERALDTON      CLOUDY    48  45  87 S3        29.68R
THUNDER BAY    CLOUDY    57  45  62 W7        29.69S
SIOUX LOOKOUT  DRIZZLE   48  46  93 N5        29.72R
TORONTO        PTSUNNY   59  43  55 W20G25    29.93R
BIG TROUT LK   SUNNY     61  32  33 E15G26    29.94S
PICKLE LAKE    LGT RAIN  46  45  93 NE10G22   29.76R FOG
DRYDEN         LGT RAIN  48  46  93 N7        29.73R
KENORA         LGT RAIN  46  45  93 N9        29.78R
$$
                *** MANITOBA***

CITY           SKY/WX    TMP DP  RH WIND       PRES   REMARKS
BRANDON        PTSUNNY   61  36  39 N22G29    29.91F
DAUPHIN        CLOUDY    61  34  36 NE22G28   30.01R
ISLAND LAKE    NOT AVBL
PILOT MOUND      N/A     57  36  44 N25G36      N/A
THE PAS        MOSUNNY   63  37  39 N10       30.10S
THOMPSON       MOSUNNY   61  37  41 NE12      30.13F
WINNIPEG       LGT RAIN  50  46  87 N24G32    29.88R
LYNN LAKE      SUNNY     66  34  30 SE7       30.17F
GILLAM         MOSUNNY   52  36  54 NE9       30.18S
$$
                ***SASKATCHEWAN***

CITY           SKY/WX    TMP DP  RH WIND       PRES   REMARKS
ESTEVAN        PTSUNNY   63  34  34 N14       30.03S
KINDERSLEY     MOSUNNY   66  34  30 E2        30.18F
LLOYDMINSTER   PTSUNNY   66  37  34 S7        30.19F
PRINCE ALBERT  MOSUNNY   72  34  25 N9        30.14S
REGINA         PTSUNNY   64  36  34 N15G24    30.10R
YORKTON        MOSUNNY   66  32  28 N17G28    30.04R
N. BATTLEFORD  SUNNY     68  37  32 VRB2      30.19F
LA RONGE       MOSUNNY   70  30  23 NE9       30.17F
SASKATOON      MOSUNNY   68  34  28 N9        30.17F
SWIFT CURRENT  MOSUNNY   63  37  39 NE15G21   30.16S
$$
NOTE: THESE ARE AUTOMATED STATIONS WITH LIMITED QUALITY CONTROL
      "FAIR" INDICATES FEW OR NO CLOUDS BELOW 12,000 FEET WITH NO
      SIGNIFICANT WEATHER AND/OR OBSTRUCTIONS TO VISIBILITY.
      SKY/WX - SKY CONDITION AND SIGNIFICANT WEATHER.
      TMP - AIR TEMPERATURE.    DP   - DEWPOINT TEMPERATURE.
      RH  - RELATIVE HUMIDITY.  PRES - PRESSURE.
      HX  - HEAT INDEX.         WCI  - WIND CHILL INDEX.
$




USA.gov is the U.S. government's official web portal to all federal, state and local government web resources and services.